Location: Newark
(29.9790°N, 31.1340°E)
Time: 10:38:27
(UTC+00:00)

Transit 2A Rocket - Pass Details

Date: 22 January 2020
Orbit: 591 x 912 km, 66.7° (Epoch: 25 February)

Event Time Altitude Azimuth Distance (km) Brightness Sun altitude
Rises 04:31:51 0° 246° (WSW) 2,861 7.5 -4.6°
Reaches altitude 10° 04:35:08 10° 272° (W) 1,931 6.5 -4.0°
Maximum altitude 04:37:23 14° 304° (NW) 1,681 6.2 -3.5°
Drops below altitude 10° 04:39:38 10° 336° (NNW) 1,921 6.7 -3.0°
Sets 04:42:54 0° 3° (N) 2,834 7.8 -2.4°
